Location: Stanford
(52.2833°N, 2.4333°W)
Time: 08:17:06
(UTC+00:00)

Daily predictions for brighter satellites

Satellite Brightness Start Highest point End
(mag) Time Altitude Azimuth Time Altitude Azimuth Time Altitude Azimuth
Cosmos 1626 3.7 17:09:09 10° SE 17:11:36 17° E 17:14:05 10° NE
ATLAS CENTAUR R/B 3.2 17:09:19 10° NNW 17:12:13 17° N 17:14:58 10° NE
Cosmos 1980 4.3 17:09:27 10° NNW 17:14:42 36° NE 17:19:56 10° ESE
H-2A R/B 4.3 17:11:29 10° N 17:14:54 22° WNW 17:18:22 10° WSW
Cosmos 1242 Rocket 3.9 17:13:41 10° SE 17:16:17 20° E 17:18:56 10° NE
YAOGAN 6 3.5 17:14:04 10° SE 17:17:16 28° ENE 17:20:29 10° N
CORIOLIS 4.1 17:12:14 10° SSE 17:17:34 68° ENE 17:22:54 10° NNW
NOAA 12 4.2 17:13:57 10° SE 17:19:04 57° ENE 17:24:12 10° N
Cosmos 2360 Rocket 3.3 17:14:25 10° NW 17:19:53 50° WSW 17:25:17 10° S
Cosmos 1898 Rocket 3.7 17:14:55 10° SSW 17:20:15 79° WNW 17:25:35 10° NNE
SMAP 3.0 17:16:05 10° SSE 17:20:44 81° ENE 17:25:25 10° NNW
Cosmos 2228 3.8 17:17:09 10° NNW 17:21:26 58° W 17:25:38 10° S
IRS-1C Rocket 4.1 17:16:48 10° SSE 17:22:04 82° ENE 17:27:22 10° NNW
H-2A R/B 2.7 17:18:20 10° SSE 17:22:10 82° ENE 17:26:05 10° NNW
SJ 16-02 1.7 17:17:55 10° SSW 17:22:18 67° WNW 17:26:45 10° NNE
Cosmos 1689 Rocket 2.6 17:19:57 10° N 17:22:52 60° WNW 17:25:46 10° SSW
COSMOS 2428 2.7 17:20:41 10° NNW 17:26:28 77° ENE 17:32:13 10° SE
SL-24 R/B - RUBIN 2 4.4 17:21:05 10° SW 17:26:29 76° NW 17:32:40 10° NE
Cosmos 2150 Rocket 4.5 17:22:29 10° S 17:27:16 40° ESE 17:32:04 10° NE
Cosmos 2219 Rocket 2.2 17:22:33 10° NNW 17:28:18 80° ENE 17:33:58 10° SE
Cosmos 1937 Rocket 3.6 17:24:22 10° SSW 17:29:37 86° WNW 17:34:58 10° NNE
Cosmos 2227 Rocket 4.0 17:30:19 10° E 17:30:51 10° E 17:31:24 10° E
CZ-4 R/B 2.2 17:27:38 10° SE 17:31:10 29° ENE 17:34:46 10° N
COSMOS 2487 3.0 17:28:21 10° SW 17:31:46 59° WNW 17:35:15 10° NNE
Cosmos 2184 Rocket 4.0 17:30:33 10° S 17:36:37 62° E 17:42:41 10° NNE
Cosmos 1892 Rocket 3.7 17:34:30 10° SSW 17:38:59 81° W 17:43:29 10° N
Cosmos 1241 Rocket 4.4 17:33:51 10° NW 17:40:03 65° NE 17:46:14 10° SE
Cosmos 1812 Rocket 3.8 17:39:23 10° N 17:43:43 48° ENE 17:48:03 10° SSE
ATLAS 5 CENTAUR R/B 3.3 17:41:37 10° NW 17:44:26 30° NNE 17:49:38 14° ENE
Cosmos 2154 Rocket 4.3 17:38:34 10° SSE 17:44:32 47° E 17:50:28 10° NNE
Cosmos 1125 Rocket 4.1 17:41:49 10° SSE 17:46:29 35° ESE 17:50:56 11° NE
COBE Rocket 4.4 17:42:20 10° N 17:47:25 68° WNW 17:52:32 10° SSW
Okean 1-7 Rocket 4.1 17:51:11 10° SSW 17:55:32 61° WNW 17:59:57 10° N
YAOGAN 1 2.9 17:51:35 10° SE 17:55:38 41° ENE 17:59:44 10° N
Alouette 2 Rocket 4.3 17:51:20 10° NNW 17:55:40 77° WSW 18:02:07 10° S
Cosmos 1269 Rocket 4.1 17:53:35 10° NNW 17:58:49 57° ENE 18:04:00 10° SE
Envisat 3.2 17:54:30 10° SSE 17:59:36 79° WSW 18:04:43 10° NNW
Cosmos 1610 Rocket 4.4 17:54:53 10° S 18:00:54 64° E 18:07:01 10° NNE
Cosmos 1048 Rocket 4.3 17:58:31 10° NNW 18:03:39 70° WSW 18:08:44 10° SSE
Cosmos-2242 3.6 18:00:41 10° N 18:04:39 33° ENE 18:08:34 10° SE
CZ-4C R/B 3.1 17:58:31 10° NW 18:05:31 78° SW 18:13:37 10° SE
NOSS 2-1 (E) 4.3 18:01:12 10° NW 18:06:01 57° NE 18:12:42 10° ESE
Cosmos 2074 Rocket 4.1 18:01:14 10° SSW 18:07:32 82° W 18:13:53 10° N
CSL-04 Debris 4.2 18:02:59 10° SE 18:08:14 57° ENE 18:13:33 10° N
Cosmos 2082 Rocket 4.3 18:06:06 10° WNW 18:09:33 16° NNW 18:13:00 10° NNE
CZ-2D R/B 3.6 18:08:14 10° SE 18:11:49 40° ENE 18:15:28 10° N
Starlink AQ 3.6 18:09:23 10° SW 18:12:03 34° SSE 18:12:43 30° ESE
Meteor 2-10 Rocket 4.0 18:07:15 10° N 18:12:21 38° ENE 18:17:14 10° SE
Starlink AR 3.3 18:11:12 10° SW 18:13:30 32° SSE 18:13:45 31° SE
Cosmos 1602 Rocket 3.5 18:10:08 10° S 18:14:31 70° E 18:18:53 10° NNE
Starlink AS 3.5 18:11:55 10° SW 18:14:36 36° SSE 18:15:10 32° ESE
Starlink BA 3.5 18:12:08 10° SW 18:14:48 36° SSE 18:15:22 32° ESE
Starlink AU 3.5 18:12:20 10° SW 18:15:01 36° SSE 18:15:34 32° SE
Starlink AT 3.5 18:12:34 10° SW 18:15:15 36° SSE 18:15:48 32° SE
Cosmos 2333 Rocket 3.2 18:09:46 10° NW 18:15:17 49° WSW 18:20:43 10° S
Starlink BB 3.5 18:12:47 10° SW 18:15:28 36° SSE 18:16:01 33° SE
Cosmos 1674 4.3 18:12:13 10° SW 18:15:39 34° WNW 18:19:07 10° N
Starlink BC 3.5 18:13:00 10° SW 18:15:42 36° SSE 18:16:14 33° SE
Starlink BK 3.5 18:13:13 10° SW 18:15:54 36° SSE 18:16:26 33° SE
Cosmos 372 Rocket 4.0 18:10:52 10° SSW 18:16:00 83° WNW 18:21:14 10° NNE
Starlink AY 3.5 18:13:27 10° SW 18:16:08 37° SSE 18:16:40 33° SE
ATLAS CENTAUR R/B 3.9 18:10:31 10° WSW 18:16:12 88° SSE 18:28:21 18° ENE
Starlink AW 3.5 18:13:40 10° SW 18:16:21 37° SSE 18:16:52 33° SE
Starlink BJ 3.5 18:13:50 10° SW 18:16:32 37° SSE 18:17:03 33° SE
Starlink AV 3.5 18:14:03 10° SW 18:16:45 37° SSE 18:17:15 34° SE
Starlink BD 3.4 18:14:17 10° SW 18:16:59 37° SSE 18:17:28 34° SE
Starlink BE 3.5 18:14:27 10° SW 18:17:10 37° SSE 18:17:40 34° SE
Cosmos 2237 Rocket 2.1 18:11:41 10° NNW 18:17:22 76° ENE 18:22:59 10° SE
Starlink BM 3.4 18:14:43 10° SW 18:17:25 37° SSE 18:17:54 34° SE
Starlink AX 3.4 18:14:56 10° SW 18:17:38 37° SSE 18:18:06 34° SE
Starlink BH 3.4 18:15:10 10° SW 18:17:53 38° SSE 18:18:20 34° SE
Starlink AZ 3.4 18:15:23 10° SW 18:18:05 38° SSE 18:18:33 35° SE
Starlink BG 3.4 18:15:37 10° SW 18:18:20 38° SSE 18:18:47 35° SE
Starlink BF 3.4 18:15:50 10° SW 18:18:32 38° SSE 18:18:59 35° SE
Starlink BL 3.4 18:15:57 10° SW 18:18:40 38° SSE 18:19:08 35° SE
Starlink AH 3.4 18:16:13 10° SW 18:18:56 38° SSE 18:19:22 35° SE
Starlink AC 3.4 18:16:27 10° SW 18:19:10 38° SSE 18:19:35 36° SE
COSMO-SKYMED 1 2.5 18:15:00 10° NNE 18:19:20 63° ESE 18:23:38 10° S
Starlink X 3.4 18:16:39 10° SW 18:19:22 38° SSE 18:19:47 36° SE
Starlink AE 3.4 18:16:49 10° SW 18:19:34 39° SSE 18:19:59 36° SE
Starlink Z 3.4 18:17:06 10° SW 18:19:49 39° SSE 18:20:13 36° SE
Cosmos 1340 Rocket 2.8 18:16:04 10° NNW 18:20:01 81° WSW 18:23:59 10° S
Starlink AK 3.4 18:17:21 10° SW 18:20:04 39° SSE 18:20:28 36° SE
Cosmos 1300 3.3 18:16:23 10° NNW 18:20:11 59° W 18:23:56 10° S
Starlink AL 3.4 18:17:35 10° SW 18:20:18 39° SSE 18:20:41 37° SE
Starlink AD 3.3 18:17:45 10° SW 18:20:28 39° SSE 18:20:51 37° SE
Starlink Y 3.3 18:18:12 10° SW 18:20:56 39° SSE 18:21:18 37° SE
Starlink AG 3.3 18:18:25 10° SW 18:21:09 39° SSE 18:21:31 37° SE
Starlink W 3.3 18:18:33 10° SW 18:21:18 40° SSE 18:21:40 37° SE
Starlink AJ 3.3 18:18:50 10° SW 18:21:34 40° SSE 18:21:55 38° SE
Starlink AM 3.3 18:19:15 10° SW 18:21:59 40° SSE 18:22:19 38° SE
Cosmos 962 Rocket 4.5 18:16:09 10° SSE 18:22:05 56° E 18:28:07 10° NNE
Starlink AP 3.3 18:19:29 10° SW 18:22:13 40° SSE 18:22:32 38° SE
Starlink AA 3.3 18:19:41 10° SW 18:22:26 40° SSE 18:22:45 38° SE
Starlink AF 3.3 18:19:54 10° SW 18:22:39 40° SSE 18:22:57 39° SE
Starlink AB 3.3 18:20:10 10° SW 18:22:55 40° SSE 18:23:13 39° SE
Meteor 1-21 Rocket 4.5 18:17:50 10° SSE 18:23:06 44° E 18:28:29 10° NNE
Starlink AN 3.3 18:20:21 10° SW 18:23:06 41° SSE 18:23:23 39° SE
Nadezhda 3 Rocket 4.2 18:17:52 10° NNW 18:24:08 76° W 18:30:26 10° S
Meteor 1-24 Rocket 3.9 18:19:29 10° SSW 18:24:46 67° WNW 18:30:11 10° N
ADEOS Rocket 3.9 18:19:51 12° NE 18:24:58 31° E 18:31:01 10° SSE
Okean-O 3.6 18:21:37 10° S 18:25:54 49° W 18:30:15 10° NNW
Cosmos 1758 Rocket 3.7 18:27:07 10° SSE 18:31:15 47° E 18:33:07 28° NE
Starlink T 3.1 18:29:07 10° SW 18:31:54 46° SSE 18:31:54 46° SSE
SL-14 R/B 3.7 18:28:06 10° SSW 18:32:05 63° WNW 18:36:03 10° N
Starlink N 3.2 18:30:14 10° SW 18:32:58 46° SSE 18:32:58 46° SSE
Starlink Q 3.2 18:31:41 10° SW 18:34:22 47° SSE 18:34:22 47° SSE
Cosmos 1727 Rocket 4.3 18:28:37 10° N 18:34:29 41° ENE 18:40:16 10° SE
Cosmos 1271 Rocket 3.8 18:31:56 10° SW 18:35:31 44° WNW 18:39:10 10° N
Starlink P 3.2 18:32:54 10° SW 18:35:34 48° S 18:35:34 48° S
Timation 2 Rocket 3.9 18:30:32 10° SSW 18:36:39 89° SE 18:41:40 17° NNE
Cosmos 1455 2.4 18:33:04 10° N 18:36:37 47° ENE 18:36:37 47° ENE
Starlink U 3.2 18:34:08 10° SW 18:36:45 48° S 18:36:45 48° S
SL-16 R/B 2.4 18:31:46 10° NNW 18:37:18 49° NE 18:39:50 30° ESE
Cosmos 1626 Rocket 4.1 18:33:31 10° SSW 18:37:48 58° WNW 18:42:05 10° N
CSL-04 Rocket 3.7 18:32:35 10° SSE 18:38:05 90° WSW 18:43:41 10° NNW
Starlink B 3.2 18:35:23 10° SW 18:37:58 48° S 18:37:58 48° S
Cosmos 1939 Rocket 2.6 18:36:40 10° SSE 18:40:33 80° ENE 18:44:32 10° NNW
USA 267 3.4 18:38:38 27° ENE 18:42:23 66° NNW 18:48:51 10° W
Starlink D 3.3 18:39:37 10° SW 18:42:06 49° S 18:42:06 49° S
Ariane Rocket 3.1 18:38:03 10° SE 18:42:56 51° ENE 18:47:53 10° N
Starlink S 3.3 18:40:55 10° WSW 18:43:23 48° SSW 18:43:23 48° SSW
Cosmos 2219 3.3 18:39:22 10° S 18:44:48 53° ESE 18:46:52 35° ENE
Starlink C 3.4 18:42:11 10° WSW 18:44:37 48° SSW 18:44:37 48° SSW
H-2A R/B 2.8 18:46:39 30° NE 18:46:39 30° NE 18:50:11 10° N
Starlink E 3.4 18:43:31 10° WSW 18:45:54 47° SSW 18:45:54 47° SSW
Cosmos 1626 3.1 18:42:58 10° SSW 18:46:32 46° WNW 18:50:09 10° N
Cosmos 2341 Rocket 3.9 18:40:13 10° S 18:46:35 76° E 18:52:56 10° NNE
ATLAS 5 CENTAUR R/B 2.6 18:42:29 10° WSW 18:46:43 42° NNW 18:49:06 25° NNE
Starlink J 3.5 18:44:51 10° WSW 18:47:11 46° SSW 18:47:11 46° SSW
Starlink V 3.5 18:46:09 10° WSW 18:48:27 45° SSW 18:48:27 45° SSW
Starlink H 3.6 18:47:30 10° WSW 18:49:45 45° SSW 18:49:45 45° SSW
Cosmos 1242 Rocket 4.0 18:47:41 10° SW 18:50:57 35° WNW 18:54:03 11° N
Starlink F 3.7 18:48:50 10° WSW 18:51:03 43° SW 18:51:03 43° SW
ATLAS CENTAUR R/B 2.3 18:48:27 10° NNW 18:51:45 32° NNE 18:51:45 32° NNE
SL-8 Rocket 3.9 18:46:09 10° S 18:52:21 63° E 18:58:34 10° NNE
Starlink G 3.7 18:50:10 10° WSW 18:52:21 42° SW 18:52:21 42° SW
Starlink L 3.8 18:51:30 10° WSW 18:53:38 41° SW 18:53:38 41° SW
Cosmos 2251 Rocket 3.6 18:50:24 10° NNW 18:55:35 52° ENE 18:56:26 47° E
Starlink A 3.9 18:52:51 10° WSW 18:54:57 40° SW 18:54:57 40° SW
Starlink R 4.0 18:54:12 10° WSW 18:56:15 39° SW 18:56:15 39° SW
CZ-2C R/B 4.1 18:58:31 31° NE 18:58:31 31° NE 19:02:19 10° N
Cosmos 1825 Rocket 3.4 18:53:08 10° S 18:57:28 76° E 18:58:41 47° NNE
Starlink K 4.0 18:55:31 10° WSW 18:57:32 38° SW 18:57:32 38° SW
Cosmos 1980 4.4 18:53:31 10° NW 18:59:05 56° WSW 19:04:37 10° S
Starlink M 4.1 18:56:49 10° WSW 18:58:47 37° SW 18:58:47 37° SW
Cosmos 2297 Rocket 2.3 18:56:19 10° S 19:01:45 51° ESE 19:02:20 49° E
SJ 16-02 4.0 18:59:33 10° WNW 19:01:49 14° NW 19:04:05 10° N
DMSP B5D1-3 4.4 19:01:09 32° NNE 19:03:34 70° ESE 19:08:38 10° S
USA 32 4.2 18:58:35 10° SSW 19:03:48 73° W 19:09:04 10° N
Cosmos 1607 4.0 18:58:28 10° SW 19:04:36 72° NW 19:07:38 32° NNE
CZ-4 R/B 3.1 19:02:25 10° SSW 19:06:07 34° W 19:09:55 10° NNW
NOSS 2-1 (C) 4.5 19:01:17 10° NW 19:06:19 71° SW 19:11:34 18° SSE
SKYMED 2 4.5 19:03:08 10° N 19:07:20 48° WNW 19:11:30 10° SW
Cosmos 2227 Rocket 2.2 19:08:11 10° S 19:13:41 57° ESE 19:13:41 57° ESE
SL-08 R/B 4.5 19:12:35 10° SSE 19:18:42 57° E 19:24:57 10° NNE
Cosmos 2218 Rocket 3.9 19:14:58 10° S 19:21:19 83° E 19:27:45 10° NNE
Cosmos 1943 4.3 19:22:14 10° NNW 19:25:48 29° NNE 19:25:48 29° NNE
Cosmos 1125 Rocket 4.5 19:23:30 10° SW 19:28:28 44° NW 19:31:15 24° N
Cosmos 864 Rocket 4.3 19:26:06 10° S 19:32:15 89° ESE 19:38:26 10° N
ARGOS 3.7 19:37:10 47° N 19:37:10 47° N 19:41:01 10° NNW
Cosmos 724 4.2 19:36:37 10° SW 19:42:36 88° NW 19:42:42 87° N
Cosmos 2366 rocket 4.4 19:53:39 10° SSW 19:59:46 60° WNW 20:06:01 10° N
Cosmos 2237 Rocket 4.4 19:56:36 10° NW 20:00:51 22° WSW 20:05:04 10° SSW
ADEOS Rocket 3.5 20:06:42 23° N 20:10:50 64° WNW 20:17:43 10° SSW
SL-16 R/B 3.4 20:16:09 10° NW 20:21:20 37° WSW 20:21:47 37° WSW
H-2A R/B 3.7 20:27:16 27° NW 20:27:16 27° NW 20:29:52 10° NNW
USA 267 3.6 20:25:59 56° NNW 20:25:59 56° NNW 20:31:30 10° WNW
Cosmos 2219 4.5 20:24:00 10° WSW 20:28:51 37° NW 20:28:51 37° NW
ATLAS CENTAUR R/B 4.4 20:27:27 10° NW 20:27:57 13° NW 20:27:57 13° NW
ATLAS 5 CENTAUR R/B 4.1 20:28:39 10° WNW 20:30:39 19° NW 20:30:39 19° NW
Cosmos 2297 Rocket 3.8 20:40:44 10° WSW 20:44:11 31° W 20:44:11 31° W
Cosmos 2227 Rocket 4.1 20:52:52 10° WSW 20:55:34 25° W 20:55:34 25° W
